CZ-6A DEB, 54503

Orbit data source: Space-Track

CZ-6A DEB, 54503 is space debris in SSO originally from a launch on Fri, 11 Nov 2022 UTC launched from the Taiyaun Space Center, China (TSC). Debris objects in space refer to the collection of defunct objects orbiting the Earth. Examples of debris include non-operational satellites, rocket bodies, and fragments generated from explosions, collisions, or faulty payload assembly.

Loading next visibility...
Identifier
54503, 2022-151JF
Orbit
SSO
Country
Flag of CNCN / PRC
Related business
Manufacturer
SAST
Mission
Spacecraft
Bus & Motor
Unknown
Mass
Unknown
Launch date (UTC)
2022-11-11 (3 years ago)
Launch vehicle
Unknown
Launch site
Taiyaun Space Center, China (TSC)
Object type
Payload
Rocket body
Debris
Shape & HBR
Unknown shape, 0.1 m
Radar Cross Section
Small (<0.1 m²)

Expand to show TLE details & history
Last TLE update: 18 hours ago

TLE from 18 hours ago
0 CZ-6A DEB
1 54503U 22151JF  25349.94887011  .00000677  00000-0  38886-3 0  9995
2 54503  98.7546 336.2019 0051617 142.6442 217.8337 14.11922374158981
Epoch: 2025-12-15T22:46Z
TLE epoch observation values (Epoch: 2025-12-15T22:46:22.377Z)
Latitude
0.00001°
Longitude
-90.23144°
Altitude
885.259 km
Speed
7.394 km/s
True Right ascension
22h 24m 48s
True Declination
0° 00' 00"
Sunlit
Object was in daylight at epoch
Visualization orbit readout
Latitude
Unknown
Longitude
Unknown
Altitude
Unknown
Speed
Unknown
Apparent Right ascension
Unknown
Apparent Declination
Unknown
Sunlit
N/A
Visualization observer readout
Local Sidereal Time
15:42:10
Azimuth
Unknown
Elevation
Unknown
Doppler factor
Unknown
Orbital elements
Apogee altitude
887.282 km
Perigee altitude
812.663 km
Semi-major axis
7,228.109 km
Eccentricity
0.00516
Inclination
98.7546°
RAAN
336.2019°
Arg. of periapsis
142.6442°
True anomaly
217.47274°
Mean anomaly
217.8337°
Eccentric anomaly
217.65304°
Mean motion
3.53188 °/min
Orbital period
101.93 mins
BSTAR
0.00038886
Loading maneuver chart data...
Computing Atmospheric mass density...
Loading historical data...
Loading historical data...
Loading historical data...
Loading historical data...
Loading historical data...
Loading historical data...
Loading historical data...

Documentation

Showing up to 5 results
|